Traverse City, MI

12:31 PM EST on December 14, 2017 (GMT -0500)
Cherry Capital

Weather History for KTVC - April, 2014

Change the Weather History Date:

Tuesday, April 29, 2014

  Actual Average Record
Temperature  
Mean Temperature 52 °F 48 °F  
Max Temperature 61 °F 60 °F 90 °F (1970)
Min Temperature 43 °F 36 °F 21 °F (1977)
Degree Days  
Heating Degree Days 13 17  
Month to date heating degree days 688 649  
Since 1 July heating degree days 7741 7051  
Cooling Degree Days 0 0  
Month to date cooling degree days 0 0  
Year to date cooling degree days 0 0  
Growing Degree Days 2 (Base 50)    
Moisture  
Dew Point 42 °F    
Average Humidity 66    
Maximum Humidity 89    
Minimum Humidity 42    
Precipitation  
Precipitation 0.79 in 0.09 in 0.79 in (2014)
Month to date precipitation 4.08 2.70  
Year to date precipitation 6.42 8.88  
Sea Level Pressure  
Sea Level Pressure 29.66 in    
Wind  
Wind Speed 8 mph (East)    
Max Wind Speed 20 mph    
Max Gust Speed 28 mph    
Visibility 8 miles    
Events Rain    
T = Trace of Precipitation, MM = Missing Value Source: NWS Daily Summary

Daily Weather History Graph

Daily Weather History Graph

Search for Another Location

Airport or City:

Trip Planner

Search our weather history database for the weather conditions in past years. The results will help you decide how hot, cold, wet, or windy it might be!

Date:

Astronomy

Apr. 29, 2014 Rise Set
Actual Time 6:35 AM EDT 8:44 PM EDT
Civil Twilight 6:03 AM EDT 9:16 PM EDT
Nautical Twilight 5:23 AM EDT 9:56 PM EDT
Astronomical Twilight 4:40 AM EDT 10:40 PM EDT
Moon 6:53 AM EDT (4/29) 9:25 PM EDT (4/29)
Length of Visible Light 15h 13m
Length of Day
14h 09m
New Moon, 0% of the Moon is Illuminated
Apr 29
New Moon
May 6
First Quarter
May 14
Full
May 21
Last Quarter
May 28
New

Hourly Weather History & Observations

Time (EDT) Temp. Windchill Dew Point Humidity Pressure Visibility Wind Dir Wind Speed Gust Speed Precip Events Conditions
12:53 AM 50.0 °F - 28.0 °F 43% 29.82 in 10.0 mi East 11.5 mph 21.9 mph N/A   Overcast
1:53 AM 50.0 °F - 28.9 °F 44% 29.78 in 10.0 mi East 11.5 mph 25.3 mph N/A   Overcast
2:53 AM 50.0 °F - 28.9 °F 44% 29.74 in 10.0 mi East 15.0 mph 23.0 mph N/A   Overcast
3:53 AM 48.9 °F - 30.0 °F 48% 29.72 in 10.0 mi East 15.0 mph 20.7 mph N/A   Overcast
4:53 AM 48.0 °F - 33.1 °F 56% 29.68 in 10.0 mi ENE 12.7 mph - 0.00 in   Overcast
5:53 AM 45.0 °F 39.3 °F 36.0 °F 71% 29.66 in 6.0 mi East 11.5 mph - 0.03 in Rain Light Rain
6:53 AM 43.0 °F 36.8 °F 37.9 °F 82% 29.64 in 5.0 mi East 11.5 mph - 0.12 in Rain Rain
7:08 AM 43.0 °F 37.2 °F 39.0 °F 86% 29.63 in 5.0 mi East 10.4 mph - 0.05 in Rain Rain
7:53 AM 43.0 °F 38.2 °F 39.0 °F 86% 29.62 in 3.0 mi East 8.1 mph 20.7 mph 0.17 in Rain Rain
8:30 AM 44.1 °F 40.8 °F 39.0 °F 82% 29.63 in 6.0 mi Variable 5.8 mph - 0.06 in Rain Light Rain
8:44 AM 43.0 °F 37.2 °F 39.9 °F 89% 29.62 in 2.5 mi East 10.4 mph - 0.16 in Rain Heavy Rain
8:53 AM 43.0 °F 38.2 °F 39.9 °F 89% 29.63 in 3.0 mi East 8.1 mph - 0.21 in Rain Heavy Rain
9:53 AM 44.1 °F 40.8 °F 39.9 °F 85% 29.62 in 6.0 mi ENE 5.8 mph - 0.09 in Rain Light Rain
10:04 AM 44.1 °F 40.1 °F 41.0 °F 89% 29.62 in 10.0 mi East 6.9 mph - 0.00 in Rain Light Rain
10:53 AM 45.0 °F 41.2 °F 42.1 °F 90% 29.61 in 10.0 mi ENE 6.9 mph - 0.01 in   Overcast
11:53 AM 46.0 °F 41.9 °F 42.1 °F 86% 29.60 in 10.0 mi East 8.1 mph - N/A   Overcast
12:53 PM 46.9 °F - 42.1 °F 83% 29.61 in 10.0 mi ESE 10.4 mph - N/A   Overcast
1:53 PM 50.0 °F - 44.1 °F 80% 29.60 in 10.0 mi SSE 9.2 mph - N/A   Overcast
2:51 PM 53.6 °F - 44.6 °F 72% 29.60 in 10.0 mi ESE 9.2 mph - N/A   Mostly Cloudy
2:53 PM 53.1 °F - 46.0 °F 77% 29.61 in 10.0 mi Variable 5.8 mph - N/A   Mostly Cloudy
3:53 PM 55.0 °F - 46.9 °F 74% 29.61 in 10.0 mi ESE 10.4 mph - N/A   Overcast
4:53 PM 57.9 °F - 48.0 °F 70% 29.62 in 10.0 mi ESE 6.9 mph - N/A   Mostly Cloudy
5:09 PM 59.0 °F - 48.0 °F 67% 29.61 in 10.0 mi ESE 6.9 mph - N/A   Mostly Cloudy
5:53 PM 60.1 °F - 46.9 °F 62% 29.63 in 10.0 mi Variable 4.6 mph - N/A   Mostly Cloudy
6:53 PM 57.0 °F - 50.0 °F 77% 29.70 in 10.0 mi South 5.8 mph - 0.00 in Rain Light Rain
7:53 PM 55.9 °F - 52.0 °F 87% 29.67 in 10.0 mi East 4.6 mph - 0.07 in   Mostly Cloudy
8:53 PM 54.0 °F - 48.9 °F 83% 29.69 in 10.0 mi ESE 6.9 mph - 0.00 in   Mostly Cloudy
9:53 PM 53.1 °F - 48.0 °F 83% 29.69 in 10.0 mi ESE 3.5 mph - N/A   Mostly Cloudy
10:53 PM 53.1 °F - 48.0 °F 83% 29.70 in 10.0 mi ESE 3.5 mph - N/A   Overcast
11:53 PM 53.1 °F - 48.0 °F 83% 29.73 in 10.0 mi SE 8.1 mph - N/A   Overcast